QPF
0.00 0.00 0.01 0.05 0.12 0.12 0.09 0.06 0.05 0.03 0.02 0.02 0.01 0.02 0.04 0.04 0.07 0.13 0.19 0.23 0.24 0.17 0.11 0.07 0.07 0.07 0.08 0.09 0.07 0.05 0.05 0.06 0.08 0.11 0.12 0.12 0.12 0.11 0.08 0.06 0.05 0.05 0.06 0.09 0.09 0.06 0.05 0.05 0.05
0.00 0.00 0.04 0.09 0.14 0.10 0.07 0.06 0.05 0.03 0.01 0.00 0.01 0.03 0.03 0.03 0.04 0.09 0.18 0.23 0.20 0.14 0.12 0.07 0.07 0.07 0.06 0.07 0.06 0.05 0.04 0.04 0.06 0.13 0.15 0.12 0.15 0.12 0.07 0.06 0.06 0.06 0.07 0.08 0.10 0.05 0.04 0.03 0.05
0.00 0.01 0.05 0.10 0.09 0.08 0.07 0.05 0.02 0.01 0.01 0.01 0.01 0.02 0.02 0.04 0.05 0.10 0.20 0.24 0.21 0.18 0.14 0.11 0.10 0.07 0.06 0.07 0.07 0.07 0.05 0.04 0.04 0.10 0.16 0.12 0.15 0.10 0.08 0.07 0.08 0.07 0.07 0.06 0.06 0.04 0.04 0.03 0.04
0.01 0.03 0.04 0.07 0.05 0.04 0.04 0.03 0.01 0.02 0.01 0.01 0.01 0.02 0.03 0.05 0.05 0.08 0.12 0.14 0.16 0.18 0.15 0.11 0.10 0.07 0.07 0.07 0.07 0.06 0.05 0.05 0.04 0.07 0.15 0.15 0.11 0.09 0.09 0.09 0.09 0.06 0.06 0.05 0.04 0.04 0.04 0.04 0.04
0.02 0.04 0.06 0.05 0.02 0.03 0.03 0.02 0.02 0.02 0.01 0.00 0.01 0.03 0.05 0.07 0.06 0.07 0.08 0.12 0.13 0.15 0.13 0.09 0.08 0.06 0.05 0.06 0.06 0.06 0.06 0.07 0.06 0.08 0.13 0.17 0.13 0.14 0.13 0.10 0.08 0.06 0.06 0.05 0.04 0.05 0.05 0.05 0.04
0.05 0.06 0.05 0.03 0.02 0.02 0.01 0.01 0.01 0.01 0.00 0.00 0.01 0.03 0.08 0.11 0.08 0.07 0.07 0.08 0.08 0.07 0.07 0.04 0.04 0.04 0.04 0.05 0.06 0.07 0.07 0.07 0.07 0.09 0.14 0.15 0.10 0.09 0.10 0.10 0.08 0.06 0.05 0.06 0.05 0.05 0.04 0.05 0.04
0.08 0.05 0.04 0.03 0.02 0.02 0.01 0.01 0.00 0.01 0.00 0.00 0.00 0.02 0.09 0.13 0.08 0.05 0.05 0.08 0.07 0.05 0.04 0.04 0.03 0.03 0.04 0.04 0.05 0.08 0.07 0.07 0.05 0.05 0.09 0.08 0.06 0.07 0.07 0.08 0.06 0.05 0.04 0.05 0.05 0.05 0.04 0.04 0.05
0.03 0.04 0.05 0.04 0.02 0.02 0.01 0.01 0.01 0.01 0.01 0.01 0.02 0.04 0.07 0.09 0.06 0.05 0.06 0.08 0.06 0.05 0.04 0.05 0.05 0.04 0.04 0.03 0.04 0.05 0.06 0.05 0.03 0.03 0.05 0.05 0.05 0.07 0.07 0.06 0.04 0.05 0.05 0.06 0.06 0.05 0.05 0.03 0.02
0.02 0.06 0.06 0.05 0.02 0.01 0.01 0.01 0.01 0.01 0.02 0.03 0.04 0.05 0.05 0.04 0.04 0.07 0.09 0.09 0.09 0.05 0.06 0.07 0.07 0.06 0.05 0.05 0.04 0.06 0.08 0.06 0.05 0.05 0.05 0.06 0.07 0.09 0.09 0.06 0.05 0.05 0.07 0.07 0.06 0.06 0.04 0.02 0.01
0.03 0.05 0.04 0.02 0.01 0.01 0.00 0.01 0.01 0.02 0.03 0.03 0.03 0.04 0.04 0.05 0.07 0.09 0.10 0.10 0.16 0.16 0.12 0.08 0.08 0.07 0.06 0.03 0.04 0.08 0.09 0.08 0.09 0.08 0.08 0.08 0.06 0.08 0.09 0.07 0.06 0.05 0.06 0.06 0.06 0.06 0.05 0.04 0.03
0.05 0.04 0.01 0.01 0.00 0.01 0.01 0.01 0.02 0.03 0.04 0.05 0.05 0.05 0.05 0.07 0.11 0.12 0.11 0.14 0.26 0.35 0.24 0.12 0.08 0.06 0.05 0.04 0.04 0.07 0.08 0.09 0.09 0.07 0.06 0.07 0.06 0.09 0.10 0.11 0.09 0.09 0.07 0.05 0.04 0.05 0.06 0.07 0.06
0.03 0.01 0.00 0.00 0.00 0.01 0.01 0.01 0.01 0.02 0.04 0.04 0.03 0.02 0.04 0.07 0.10 0.12 0.11 0.13 0.21 0.28 0.20 0.08 0.07 0.07 0.06 0.05 0.04 0.04 0.05 0.06 0.06 0.07 0.07 0.06 0.06 0.08 0.09 0.10 0.09 0.11 0.08 0.07 0.04 0.06 0.10 0.12 0.10
0.02 0.01 0.01 0.00 0.00 0.01 0.01 0.01 0.01 0.01 0.02 0.01 0.01 0.01 0.02 0.04 0.06 0.07 0.09 0.08 0.10 0.14 0.09 0.06 0.05 0.06 0.05 0.04 0.04 0.04 0.05 0.04 0.04 0.06 0.08 0.08 0.06 0.07 0.09 0.10 0.10 0.10 0.07 0.07 0.07 0.08 0.11 0.11 0.11
0.01 0.00 0.00 0.00 0.01 0.01 0.01 0.01 0.01 0.01 0.01 0.00 0.00 0.01 0.01 0.02 0.02 0.03 0.05 0.05 0.06 0.06 0.05 0.04 0.03 0.03 0.03 0.03 0.04 0.04 0.02 0.03 0.03 0.05 0.06 0.07 0.07 0.08 0.10 0.09 0.08 0.07 0.07 0.09 0.10 0.11 0.14 0.12 0.10
0.01 0.01 0.01 0.01 0.01 0.01 0.03 0.03 0.01 0.01 0.01 0.00 0.00 0.01 0.01 0.02 0.03 0.03 0.03 0.04 0.05 0.05 0.03 0.02 0.02 0.01 0.02 0.02 0.02 0.01 0.01 0.02 0.03 0.05 0.04 0.04 0.06 0.08 0.10 0.07 0.06 0.05 0.05 0.10 0.12 0.14 0.16 0.13 0.10
0.02 0.02 0.01 0.01 0.01 0.01 0.03 0.04 0.01 0.01 0.00 0.00 0.00 0.00 0.00 0.01 0.02 0.02 0.02 0.03 0.04 0.04 0.03 0.02 0.01 0.01 0.01 0.02 0.02 0.01 0.01 0.03 0.04 0.04 0.05 0.06 0.05 0.07 0.09 0.08 0.06 0.06 0.07 0.13 0.17 0.16 0.16 0.13 0.11
0.02 0.02 0.02 0.01 0.01 0.01 0.02 0.03 0.01 0.00 0.00 0.00 0.00 0.00 0.00 0.00 0.01 0.03 0.02 0.02 0.02 0.03 0.03 0.03 0.02 0.01 0.02 0.02 0.03 0.02 0.02 0.02 0.02 0.02 0.02 0.02 0.02 0.04 0.06 0.07 0.08 0.10 0.15 0.14 0.16 0.16 0.14 0.13 0.11
0.01 0.02 0.02 0.02 0.01 0.01 0.01 0.01 0.00 0.00 0.00 0.00 0.00 0.00 0.00 0.00 0.00 0.02 0.02 0.01 0.03 0.02 0.02 0.03 0.02 0.02 0.03 0.03 0.04 0.03 0.02 0.03 0.02 0.02 0.02 0.01 0.02 0.02 0.03 0.05 0.07 0.08 0.11 0.13 0.14 0.15 0.14 0.12 0.10
0.01 0.01 0.02 0.02 0.01 0.00 0.00 0.00 0.00 0.00 0.00 0.00 0.00 0.00 0.00 0.00 0.00 0.00 0.02 0.01 0.02 0.01 0.02 0.03 0.02 0.03 0.04 0.05 0.05 0.05 0.04 0.04 0.02 0.02 0.01 0.01 0.02 0.04 0.04 0.04 0.06 0.07 0.11 0.13 0.12 0.13 0.12 0.10 0.08
0.01 0.01 0.01 0.01 0.00 0.00 0.01 0.01 0.00 0.00 0.00 0.00 0.00 0.00 0.00 0.01 0.01 0.00 0.01 0.02 0.02 0.01 0.01 0.02 0.03 0.03 0.02 0.04 0.05 0.05 0.05 0.03 0.02 0.01 0.02 0.02 0.03 0.03 0.03 0.03 0.04 0.06 0.09 0.10 0.10 0.10 0.09 0.07 0.06
0.01 0.01 0.01 0.00 0.00 0.00 0.01 0.02 0.00 0.00 0.00 0.00 0.00 0.00 0.00 0.00 0.01 0.01 0.01 0.01 0.02 0.01 0.01 0.01 0.03 0.03 0.02 0.03 0.03 0.05 0.05 0.04 0.03 0.02 0.04 0.04 0.03 0.03 0.03 0.03 0.03 0.05 0.06 0.08 0.08 0.07 0.08 0.08 0.07
0.01 0.00 0.00 0.00 0.00 0.00 0.02 0.04 0.01 0.00 0.00 0.00 0.00 0.00 0.00 0.00 0.01 0.01 0.01 0.01 0.01 0.02 0.01 0.01 0.02 0.02 0.02 0.03 0.05 0.06 0.06 0.05 0.04 0.04 0.03 0.03 0.02 0.01 0.02 0.03 0.04 0.04 0.04 0.06 0.06 0.05 0.05 0.08 0.10
0.00 0.00 0.00 0.00 0.00 0.00 0.01 0.02 0.02 0.01 0.02 0.00 0.00 0.00 0.00 0.00 0.00 0.00 0.01 0.01 0.00 0.02 0.02 0.01 0.02 0.02 0.03 0.03 0.04 0.05 0.05 0.04 0.03 0.02 0.03 0.02 0.02 0.01 0.01 0.01 0.03 0.03 0.03 0.04 0.05 0.06 0.06 0.07 0.08
0.00 0.00 0.00 0.01 0.01 0.01 0.00 0.01 0.02 0.01 0.02 0.02 0.02 0.03 0.03 0.01 0.00 0.00 0.00 0.01 0.01 0.00 0.01 0.01 0.02 0.02 0.02 0.02 0.02 0.03 0.04 0.05 0.04 0.03 0.04 0.02 0.01 0.01 0.01 0.01 0.03 0.03 0.04 0.05 0.05 0.06 0.05 0.05 0.06
0.00 0.00 0.02 0.05 0.03 0.01 0.00 0.01 0.02 0.01 0.00 0.00 0.00 0.01 0.01 0.00 0.00 0.00 0.00 0.01 0.01 0.00 0.00 0.01 0.02 0.02 0.02 0.02 0.02 0.02 0.04 0.05 0.04 0.03 0.02 0.02 0.02 0.02 0.02 0.02 0.02 0.03 0.04 0.05 0.05 0.05 0.04 0.05 0.05
0.00 0.00 0.02 0.04 0.03 0.02 0.01 0.01 0.00 0.01 0.00 0.00 0.00 0.00 0.00 0.00 0.00 0.00 0.00 0.00 0.00 0.00 0.00 0.00 0.01 0.02 0.02 0.02 0.02 0.03 0.03 0.03 0.03 0.03 0.03 0.02 0.02 0.03 0.02 0.02 0.02 0.02 0.04 0.04 0.06 0.05 0.05 0.05 0.04
0.00 0.00 0.00 0.01 0.01 0.02 0.01 0.01 0.00 0.00 0.00 0.00 0.00 0.00 0.00 0.00 0.00 0.00 0.00 0.00 0.00 0.01 0.01 0.01 0.01 0.01 0.01 0.02 0.01 0.02 0.02 0.03 0.03 0.04 0.04 0.03 0.03 0.03 0.02 0.02 0.02 0.02 0.03 0.04 0.03 0.04 0.05 0.06 0.05
0.00 0.00 0.00 0.01 0.02 0.03 0.01 0.01 0.01 0.00 0.00 0.00 0.00 0.00 0.00 0.00 0.00 0.00 0.00 0.00 0.01 0.02 0.02 0.01 0.01 0.01 0.01 0.01 0.01 0.01 0.02 0.02 0.03 0.05 0.05 0.05 0.05 0.04 0.04 0.03 0.03 0.02 0.03 0.03 0.04 0.05 0.05 0.05 0.05
0.00 0.00 0.00 0.00 0.02 0.02 0.03 0.02 0.01 0.00 0.00 0.00 0.00 0.00 0.00 0.00 0.00 0.00 0.00 0.00 0.01 0.01 0.01 0.02 0.01 0.01 0.01 0.01 0.01 0.02 0.02 0.02 0.03 0.06 0.06 0.07 0.07 0.06 0.05 0.05 0.04 0.03 0.03 0.03 0.04 0.04 0.04 0.04 0.04
0.00 0.00 0.00 0.00 0.01 0.01 0.01 0.01 0.00 0.01 0.01 0.01 0.00 0.00 0.00 0.00 0.00 0.00 0.00 0.00 0.00 0.00 0.01 0.01 0.01 0.01 0.01 0.01 0.01 0.02 0.04 0.05 0.06 0.06 0.07 0.07 0.07 0.05 0.04 0.04 0.03 0.03 0.04 0.04 0.04 0.04 0.04 0.04 0.03
MSLP
1005.65 1006.78 1008.11 1009.46 1010.62 1011.43 1011.80 1011.73 1011.30 1010.66 1010.01 1009.47 1009.16 1009.09 1009.22 1009.45 1009.71 1009.91 1010.04 1010.10 1010.14 1010.22 1010.37 1010.57 1010.80 1010.98 1011.06 1010.99 1010.77 1010.46 1010.11 1009.80 1009.57 1009.44 1009.36 1009.29 1009.16 1008.91 1008.54 1008.08 1007.59 1007.16 1006.83 1006.65 1006.58 1006.60 1006.62 1006.62 1006.57
1005.69 1006.90 1008.22 1009.48 1010.48 1011.10 1011.29 1011.08 1010.57 1009.93 1009.33 1008.88 1008.66 1008.67 1008.84 1009.09 1009.34 1009.51 1009.62 1009.69 1009.78 1009.94 1010.20 1010.54 1010.91 1011.23 1011.40 1011.39 1011.20 1010.87 1010.48 1010.12 1009.86 1009.73 1009.70 1009.70 1009.67 1009.53 1009.25 1008.83 1008.35 1007.87 1007.46 1007.17 1007.03 1007.01 1007.08 1007.19 1007.30
1006.00 1007.21 1008.44 1009.51 1010.28 1010.66 1010.65 1010.30 1009.74 1009.14 1008.63 1008.31 1008.22 1008.33 1008.56 1008.82 1009.03 1009.16 1009.21 1009.26 1009.36 1009.57 1009.93 1010.40 1010.91 1011.35 1011.64 1011.72 1011.58 1011.26 1010.86 1010.48 1010.20 1010.06 1010.04 1010.10 1010.14 1010.09 1009.90 1009.56 1009.11 1008.61 1008.14 1007.77 1007.53 1007.41 1007.41 1007.48 1007.60
1006.59 1007.74 1008.79 1009.61 1010.10 1010.21 1009.99 1009.52 1008.95 1008.42 1008.05 1007.89 1007.96 1008.18 1008.46 1008.72 1008.88 1008.93 1008.91 1008.90 1008.97 1009.21 1009.62 1010.18 1010.80 1011.37 1011.77 1011.95 1011.88 1011.61 1011.23 1010.85 1010.55 1010.39 1010.38 1010.45 1010.54 1010.56 1010.46 1010.20 1009.82 1009.36 1008.88 1008.45 1008.11 1007.89 1007.76 1007.73 1007.76
1007.38 1008.39 1009.22 1009.75 1009.94 1009.80 1009.40 1008.85 1008.31 1007.89 1007.69 1007.72 1007.94 1008.28 1008.61 1008.86 1008.95 1008.91 1008.79 1008.69 1008.70 1008.91 1009.34 1009.94 1010.63 1011.29 1011.79 1012.06 1012.08 1011.88 1011.54 1011.18 1010.88 1010.71 1010.68 1010.75 1010.86 1010.93 1010.90 1010.73 1010.44 1010.05 1009.61 1009.18 1008.80 1008.49 1008.25 1008.09 1008.01
1008.21 1009.04 1009.61 1009.86 1009.77 1009.42 1008.90 1008.33 1007.87 1007.61 1007.59 1007.81 1008.19 1008.63 1009.00 1009.22 1009.24 1009.10 1008.87 1008.67 1008.61 1008.76 1009.15 1009.75 1010.46 1011.15 1011.70 1012.05 1012.14 1012.02 1011.75 1011.43 1011.16 1010.99 1010.94 1010.99 1011.09 1011.19 1011.20 1011.12 1010.92 1010.63 1010.28 1009.90 1009.53 1009.19 1008.89 1008.64 1008.46
1008.86 1009.49 1009.82 1009.81 1009.52 1009.03 1008.46 1007.95 1007.61 1007.53 1007.71 1008.12 1008.63 1009.15 1009.54 1009.73 1009.69 1009.46 1009.14 1008.86 1008.71 1008.79 1009.12 1009.66 1010.32 1010.99 1011.55 1011.92 1012.08 1012.02 1011.83 1011.57 1011.34 1011.19 1011.13 1011.17 1011.25 1011.34 1011.38 1011.35 1011.23 1011.05 1010.80 1010.52 1010.22 1009.91 1009.60 1009.33 1009.11
1009.17 1009.61 1009.73 1009.55 1009.13 1008.59 1008.06 1007.66 1007.49 1007.60 1007.97 1008.52 1009.14 1009.71 1010.11 1010.27 1010.19 1009.91 1009.54 1009.20 1008.99 1009.00 1009.25 1009.70 1010.27 1010.86 1011.37 1011.73 1011.90 1011.90 1011.77 1011.59 1011.42 1011.31 1011.27 1011.29 1011.35 1011.42 1011.46 1011.45 1011.40 1011.30 1011.16 1010.98 1010.78 1010.54 1010.29 1010.04 1009.84
1009.07 1009.34 1009.32 1009.03 1008.59 1008.09 1007.67 1007.43 1007.44 1007.74 1008.26 1008.93 1009.61 1010.20 1010.59 1010.74 1010.63 1010.35 1009.98 1009.63 1009.41 1009.37 1009.54 1009.89 1010.34 1010.81 1011.21 1011.50 1011.65 1011.67 1011.61 1011.51 1011.42 1011.36 1011.35 1011.38 1011.43 1011.47 1011.49 1011.49 1011.46 1011.41 1011.35 1011.27 1011.17 1011.04 1010.87 1010.69 1010.53
1008.61 1008.77 1008.66 1008.36 1007.96 1007.57 1007.31 1007.25 1007.45 1007.90 1008.53 1009.25 1009.95 1010.53 1010.90 1011.03 1010.94 1010.69 1010.37 1010.08 1009.89 1009.85 1009.97 1010.21 1010.53 1010.85 1011.12 1011.31 1011.40 1011.42 1011.40 1011.37 1011.36 1011.38 1011.42 1011.48 1011.52 1011.54 1011.54 1011.51 1011.48 1011.45 1011.44 1011.43 1011.41 1011.37 1011.30 1011.21 1011.12
1007.98 1008.07 1007.94 1007.68 1007.38 1007.14 1007.05 1007.17 1007.52 1008.08 1008.76 1009.48 1010.14 1010.67 1011.00 1011.13 1011.07 1010.90 1010.68 1010.49 1010.39 1010.38 1010.48 1010.65 1010.84 1011.01 1011.13 1011.20 1011.21 1011.20 1011.19 1011.22 1011.28 1011.38 1011.49 1011.59 1011.65 1011.67 1011.64 1011.58 1011.53 1011.50 1011.49 1011.52 1011.56 1011.59 1011.61 1011.59 1011.58
1007.43 1007.49 1007.39 1007.20 1007.02 1006.93 1007.00 1007.26 1007.71 1008.30 1008.97 1009.63 1010.21 1010.65 1010.93 1011.05 1011.05 1010.97 1010.89 1010.83 1010.84 1010.91 1011.02 1011.15 1011.24 1011.28 1011.27 1011.21 1011.13 1011.07 1011.06 1011.12 1011.25 1011.41 1011.59 1011.74 1011.83 1011.85 1011.81 1011.74 1011.66 1011.60 1011.59 1011.62 1011.69 1011.77 1011.85 1011.90 1011.95
1007.20 1007.26 1007.19 1007.09 1007.01 1007.05 1007.23 1007.57 1008.05 1008.62 1009.21 1009.76 1010.23 1010.56 1010.78 1010.89 1010.93 1010.96 1011.00 1011.09 1011.23 1011.39 1011.54 1011.65 1011.68 1011.63 1011.51 1011.35 1011.19 1011.08 1011.05 1011.12 1011.27 1011.49 1011.71 1011.91 1012.03 1012.08 1012.05 1011.97 1011.87 1011.80 1011.77 1011.80 1011.87 1011.98 1012.10 1012.21 1012.30
1007.44 1007.51 1007.48 1007.43 1007.42 1007.53 1007.76 1008.11 1008.55 1009.04 1009.52 1009.93 1010.25 1010.48 1010.62 1010.72 1010.80 1010.91 1011.07 1011.28 1011.52 1011.76 1011.97 1012.09 1012.10 1012.01 1011.83 1011.61 1011.39 1011.23 1011.18 1011.23 1011.39 1011.61 1011.86 1012.08 1012.24 1012.32 1012.31 1012.25 1012.16 1012.08 1012.05 1012.07 1012.15 1012.27 1012.41 1012.55 1012.68
1008.14 1008.20 1008.18 1008.15 1008.17 1008.29 1008.50 1008.81 1009.17 1009.54 1009.87 1010.14 1010.33 1010.45 1010.54 1010.62 1010.73 1010.89 1011.13 1011.41 1011.73 1012.03 1012.27 1012.41 1012.44 1012.34 1012.16 1011.92 1011.70 1011.52 1011.44 1011.46 1011.59 1011.79 1012.02 1012.24 1012.41 1012.52 1012.55 1012.52 1012.46 1012.41 1012.38 1012.41 1012.49 1012.62 1012.77 1012.94 1013.10
1009.11 1009.15 1009.12 1009.08 1009.09 1009.17 1009.33 1009.55 1009.80 1010.03 1010.22 1010.36 1010.44 1010.49 1010.54 1010.61 1010.74 1010.93 1011.20 1011.52 1011.85 1012.17 1012.43 1012.59 1012.64 1012.59 1012.45 1012.26 1012.06 1011.89 1011.80 1011.78 1011.86 1012.00 1012.18 1012.37 1012.53 1012.65 1012.72 1012.74 1012.73 1012.72 1012.73 1012.77 1012.86 1012.99 1013.15 1013.34 1013.52
1010.07 1010.08 1010.03 1009.97 1009.95 1009.99 1010.07 1010.19 1010.31 1010.41 1010.48 1010.51 1010.53 1010.54 1010.58 1010.67 1010.82 1011.03 1011.29 1011.59 1011.90 1012.19 1012.44 1012.61 1012.70 1012.71 1012.66 1012.55 1012.43 1012.31 1012.22 1012.18 1012.19 1012.25 1012.36 1012.48 1012.61 1012.72 1012.82 1012.89 1012.94 1012.99 1013.04 1013.11 1013.20 1013.34 1013.50 1013.69 1013.88
1010.72 1010.72 1010.67 1010.61 1010.57 1010.57 1010.58 1010.59 1010.60 1010.58 1010.55 1010.52 1010.51 1010.53 1010.60 1010.73 1010.91 1011.14 1011.39 1011.65 1011.90 1012.14 1012.34 1012.50 1012.63 1012.72 1012.77 1012.79 1012.77 1012.73 1012.68 1012.62 1012.57 1012.54 1012.55 1012.59 1012.65 1012.75 1012.86 1012.97 1013.08 1013.19 1013.28 1013.38 1013.49 1013.61 1013.76 1013.94 1014.13
1010.87 1010.88 1010.87 1010.85 1010.84 1010.83 1010.80 1010.73 1010.63 1010.51 1010.40 1010.32 1010.31 1010.37 1010.51 1010.72 1010.96 1011.23 1011.48 1011.69 1011.88 1012.03 1012.18 1012.32 1012.47 1012.63 1012.80 1012.95 1013.07 1013.13 1013.13 1013.08 1012.98 1012.87 1012.77 1012.71 1012.71 1012.77 1012.88 1013.02 1013.19 1013.34 1013.48 1013.60 1013.71 1013.81 1013.93 1014.07 1014.24
1010.44 1010.53 1010.62 1010.72 1010.80 1010.82 1010.77 1010.64 1010.45 1010.22 1010.02 1009.90 1009.89 1010.00 1010.24 1010.55 1010.90 1011.23 1011.51 1011.71 1011.85 1011.93 1012.01 1012.12 1012.29 1012.51 1012.78 1013.06 1013.31 1013.49 1013.56 1013.53 1013.40 1013.22 1013.03 1012.88 1012.81 1012.82 1012.92 1013.09 1013.29 1013.48 1013.66 1013.79 1013.88 1013.95 1014.02 1014.11 1014.24
1009.56 1009.79 1010.07 1010.35 1010.58 1010.69 1010.65 1010.46 1010.16 1009.81 1009.49 1009.29 1009.26 1009.42 1009.75 1010.19 1010.67 1011.12 1011.47 1011.70 1011.82 1011.87 1011.91 1011.98 1012.15 1012.41 1012.76 1013.14 1013.51 1013.78 1013.94 1013.94 1013.80 1013.58 1013.32 1013.10 1012.96 1012.93 1013.01 1013.19 1013.41 1013.64 1013.83 1013.97 1014.04 1014.07 1014.08 1014.11 1014.18
1008.48 1008.93 1009.47 1009.99 1010.41 1010.64 1010.62 1010.37 1009.93 1009.41 1008.92 1008.59 1008.49 1008.66 1009.05 1009.62 1010.26 1010.85 1011.33 1011.65 1011.81 1011.86 1011.88 1011.93 1012.08 1012.36 1012.75 1013.20 1013.65 1014.01 1014.23 1014.27 1014.15 1013.90 1013.61 1013.33 1013.14 1013.07 1013.14 1013.32 1013.57 1013.82 1014.02 1014.16 1014.21 1014.19 1014.15 1014.12 1014.12
1007.51 1008.23 1009.07 1009.88 1010.51 1010.86 1010.86 1010.51 1009.90 1009.15 1008.44 1007.91 1007.68 1007.79 1008.22 1008.89 1009.67 1010.44 1011.08 1011.53 1011.78 1011.88 1011.91 1011.95 1012.08 1012.35 1012.75 1013.23 1013.72 1014.14 1014.41 1014.49 1014.39 1014.15 1013.83 1013.53 1013.31 1013.22 1013.28 1013.47 1013.72 1013.99 1014.21 1014.34 1014.38 1014.33 1014.24 1014.15 1014.11
1006.89 1007.91 1009.05 1010.14 1010.98 1011.44 1011.42 1010.96 1010.13 1009.12 1008.13 1007.35 1006.92 1006.92 1007.32 1008.05 1008.97 1009.90 1010.71 1011.32 1011.70 1011.89 1011.95 1011.99 1012.11 1012.35 1012.73 1013.20 1013.70 1014.15 1014.45 1014.57 1014.49 1014.27 1013.96 1013.65 1013.42 1013.33 1013.38 1013.57 1013.84 1014.12 1014.35 1014.49 1014.52 1014.45 1014.33 1014.21 1014.13
1006.74 1008.02 1009.45 1010.78 1011.79 1012.32 1012.27 1011.67 1010.62 1009.32 1008.02 1006.95 1006.29 1006.12 1006.45 1007.19 1008.19 1009.26 1010.23 1011.01 1011.52 1011.81 1011.93 1011.99 1012.09 1012.29 1012.63 1013.07 1013.56 1014.00 1014.32 1014.47 1014.43 1014.23 1013.95 1013.66 1013.44 1013.34 1013.40 1013.59 1013.86 1014.15 1014.39 1014.54 1014.58 1014.51 1014.38 1014.25 1014.15
1006.99 1008.50 1010.14 1011.64 1012.78 1013.34 1013.25 1012.51 1011.25 1009.69 1008.10 1006.75 1005.84 1005.48 1005.70 1006.39 1007.42 1008.57 1009.66 1010.57 1011.21 1011.59 1011.77 1011.85 1011.94 1012.12 1012.41 1012.81 1013.26 1013.70 1014.03 1014.20 1014.20 1014.05 1013.80 1013.54 1013.34 1013.25 1013.31 1013.49 1013.76 1014.06 1014.31 1014.47 1014.52 1014.46 1014.34 1014.20 1014.09
1007.50 1009.14 1010.90 1012.50 1013.70 1014.27 1014.13 1013.29 1011.88 1010.12 1008.32 1006.74 1005.61 1005.07 1005.14 1005.74 1006.73 1007.90 1009.05 1010.03 1010.75 1011.21 1011.44 1011.55 1011.63 1011.78 1012.03 1012.39 1012.82 1013.25 1013.59 1013.80 1013.84 1013.75 1013.55 1013.33 1013.15 1013.07 1013.12 1013.30 1013.56 1013.84 1014.09 1014.26 1014.32 1014.27 1014.16 1014.02 1013.91
1008.02 1009.70 1011.49 1013.11 1014.31 1014.88 1014.72 1013.84 1012.36 1010.52 1008.60 1006.89 1005.62 1004.93 1004.86 1005.34 1006.23 1007.35 1008.47 1009.45 1010.20 1010.69 1010.95 1011.07 1011.15 1011.28 1011.51 1011.85 1012.27 1012.69 1013.06 1013.31 1013.41 1013.37 1013.23 1013.05 1012.90 1012.83 1012.87 1013.03 1013.26 1013.53 1013.76 1013.92 1013.98 1013.94 1013.83 1013.69 1013.58
1008.37 1010.00 1011.72 1013.28 1014.44 1015.01 1014.87 1014.04 1012.62 1010.83 1008.94 1007.22 1005.90 1005.11 1004.92 1005.27 1006.02 1007.01 1008.03 1008.94 1009.64 1010.10 1010.36 1010.48 1010.56 1010.68 1010.91 1011.24 1011.66 1012.10 1012.50 1012.79 1012.95 1012.98 1012.90 1012.76 1012.64 1012.57 1012.60 1012.73 1012.92 1013.15 1013.35 1013.49 1013.54 1013.50 1013.38 1013.24 1013.10
1008.47 1009.96 1011.55 1013.01 1014.11 1014.68 1014.61 1013.91 1012.66 1011.04 1009.31 1007.71 1006.44 1005.64 1005.37 1005.58 1006.17 1006.97 1007.82 1008.59 1009.18 1009.57 1009.78 1009.89 1009.96 1010.09 1010.32 1010.66 1011.09 1011.55 1011.98 1012.32 1012.54 1012.62 1012.59 1012.50 1012.39 1012.32 1012.33 1012.41 1012.56 1012.74 1012.90 1013.01 1013.04 1012.98 1012.86 1012.70 1012.54
Thickness
5832 5833 5832 5823 5802 5791 5792 5808 5817 5815 5817 5825 5824 5816 5803 5795 5785 5771 5795 5806 5805 5802 5798 5795 5793 5791 5790 5789 5789 5788 5787 5787 5787 5786 5785 5784 5783 5782 5781 5780 5780 5779 5778 5777 5776 5775 5775 5774 5773
5841 5842 5831 5816 5791 5783 5794 5813 5816 5818 5825 5830 5825 5817 5805 5797 5801 5797 5800 5805 5805 5802 5798 5794 5792 5790 5789 5788 5787 5787 5786 5786 5785 5784 5783 5782 5781 5780 5780 5779 5778 5778 5777 5776 5776 5775 5774 5773 5772
5842 5844 5824 5809 5801 5797 5801 5820 5824 5830 5835 5829 5819 5815 5805 5796 5801 5799 5803 5806 5804 5800 5796 5792 5790 5789 5788 5787 5786 5786 5785 5785 5784 5783 5782 5781 5780 5779 5779 5778 5777 5776 5776 5775 5775 5774 5773 5772 5772
5844 5836 5825 5811 5806 5820 5824 5829 5833 5829 5831 5830 5820 5805 5803 5808 5805 5804 5807 5807 5802 5799 5795 5791 5789 5788 5787 5786 5785 5785 5784 5783 5782 5782 5781 5780 5779 5778 5778 5777 5776 5775 5775 5774 5773 5773 5773 5772 5771
5846 5827 5806 5805 5817 5829 5837 5840 5838 5826 5823 5823 5816 5797 5794 5806 5811 5809 5807 5805 5801 5798 5795 5791 5788 5787 5786 5785 5785 5784 5783 5782 5781 5780 5780 5779 5778 5777 5776 5775 5775 5774 5774 5774 5773 5772 5772 5771 5771
5832 5824 5802 5805 5820 5832 5839 5844 5839 5828 5824 5824 5814 5799 5793 5807 5808 5807 5807 5805 5803 5799 5795 5791 5788 5787 5786 5785 5784 5782 5782 5781 5780 5780 5779 5778 5777 5777 5775 5775 5774 5773 5773 5773 5773 5772 5772 5771 5771
5826 5820 5814 5822 5822 5826 5837 5846 5836 5828 5822 5823 5821 5800 5795 5803 5809 5810 5808 5806 5803 5801 5797 5793 5790 5787 5786 5784 5783 5782 5781 5780 5780 5779 5779 5779 5778 5777 5775 5774 5774 5773 5773 5773 5773 5772 5772 5771 5770
5853 5836 5823 5828 5824 5824 5842 5846 5843 5833 5825 5835 5829 5802 5793 5803 5813 5811 5807 5805 5803 5801 5799 5796 5793 5790 5787 5785 5783 5782 5781 5780 5779 5779 5779 5779 5778 5777 5776 5775 5774 5774 5773 5773 5773 5773 5772 5771 5771
5864 5833 5822 5829 5828 5832 5846 5841 5842 5844 5834 5830 5828 5817 5812 5815 5814 5807 5802 5800 5800 5800 5800 5799 5796 5794 5791 5789 5785 5783 5782 5780 5779 5779 5779 5779 5779 5779 5778 5776 5775 5774 5774 5774 5773 5773 5772 5771 5771
5854 5830 5835 5849 5850 5844 5847 5843 5841 5835 5823 5818 5817 5818 5819 5816 5810 5803 5798 5796 5796 5797 5799 5800 5798 5795 5795 5793 5788 5786 5784 5781 5781 5781 5781 5781 5781 5781 5780 5777 5776 5775 5774 5774 5774 5773 5773 5772 5772
5859 5844 5854 5859 5861 5856 5848 5846 5848 5832 5816 5817 5812 5812 5816 5814 5809 5804 5800 5799 5798 5800 5800 5801 5799 5797 5796 5793 5791 5789 5787 5784 5783 5783 5783 5783 5782 5781 5780 5778 5777 5776 5776 5776 5776 5775 5774 5774 5774
5859 5859 5863 5861 5864 5858 5848 5845 5840 5833 5827 5832 5827 5822 5817 5812 5808 5805 5802 5801 5801 5801 5800 5802 5801 5798 5796 5795 5793 5792 5789 5787 5786 5785 5785 5785 5784 5783 5782 5781 5780 5779 5779 5779 5778 5777 5776 5775 5775
5859 5859 5865 5867 5863 5859 5854 5842 5836 5833 5838 5838 5831 5824 5818 5814 5811 5809 5807 5804 5803 5800 5801 5801 5801 5798 5796 5795 5794 5793 5791 5789 5788 5787 5786 5786 5785 5784 5784 5783 5782 5782 5781 5780 5779 5778 5777 5777 5775
5863 5865 5865 5865 5861 5858 5846 5841 5837 5832 5841 5835 5828 5822 5819 5816 5813 5810 5807 5804 5803 5802 5802 5802 5801 5799 5797 5795 5795 5794 5793 5791 5790 5788 5787 5786 5786 5785 5785 5784 5783 5783 5782 5781 5780 5779 5778 5776 5775
5868 5857 5857 5861 5860 5857 5848 5830 5834 5842 5842 5833 5827 5823 5820 5818 5815 5812 5810 5808 5806 5805 5805 5803 5802 5800 5798 5796 5796 5796 5794 5793 5791 5789 5787 5787 5786 5786 5786 5785 5783 5784 5784 5783 5780 5779 5778 5776 5775
5856 5844 5834 5853 5861 5860 5840 5814 5839 5849 5841 5831 5828 5824 5820 5818 5818 5817 5815 5813 5811 5808 5806 5805 5806 5801 5799 5797 5796 5796 5795 5793 5792 5790 5788 5787 5787 5787 5786 5785 5784 5784 5784 5783 5780 5779 5777 5775 5775
5837 5827 5832 5846 5864 5860 5843 5825 5844 5854 5844 5833 5831 5827 5823 5820 5820 5820 5819 5816 5814 5810 5808 5806 5805 5802 5800 5799 5797 5796 5795 5793 5792 5791 5789 5788 5788 5788 5788 5787 5785 5784 5783 5783 5782 5779 5777 5775 5774
5827 5834 5837 5840 5857 5858 5846 5838 5847 5854 5848 5839 5835 5831 5826 5822 5821 5823 5822 5819 5816 5813 5810 5807 5805 5803 5802 5800 5798 5797 5795 5794 5794 5792 5791 5790 5789 5789 5789 5788 5786 5786 5784 5782 5781 5778 5778 5777 5775
5845 5840 5835 5848 5864 5856 5846 5843 5848 5855 5850 5843 5838 5834 5829 5826 5828 5828 5825 5823 5818 5814 5811 5808 5805 5804 5802 5799 5796 5794 5793 5794 5794 5794 5792 5791 5791 5790 5790 5789 5787 5786 5784 5782 5781 5779 5776 5775 5776
5848 5838 5840 5852 5867 5858 5846 5846 5854 5857 5852 5850 5844 5839 5834 5831 5828 5826 5826 5824 5819 5815 5812 5809 5806 5805 5804 5801 5799 5798 5797 5796 5796 5796 5794 5793 5792 5791 5791 5788 5787 5786 5784 5783 5781 5779 5775 5775 5776
5847 5843 5845 5849 5860 5864 5849 5836 5846 5857 5860 5857 5854 5850 5844 5837 5831 5828 5826 5825 5822 5818 5815 5813 5810 5808 5806 5804 5802 5801 5798 5796 5795 5794 5793 5793 5793 5791 5790 5789 5788 5787 5786 5782 5781 5779 5776 5772 5774
5839 5861 5860 5857 5847 5841 5846 5814 5834 5846 5848 5853 5854 5853 5850 5846 5840 5835 5831 5828 5826 5823 5820 5817 5813 5810 5808 5807 5803 5799 5795 5791 5793 5794 5795 5795 5794 5793 5792 5791 5789 5787 5786 5784 5782 5781 5779 5774 5770
5853 5868 5861 5855 5848 5842 5847 5824 5827 5848 5840 5849 5856 5857 5855 5853 5848 5841 5837 5833 5831 5829 5825 5820 5816 5812 5810 5808 5805 5801 5798 5797 5798 5797 5796 5795 5795 5794 5793 5792 5790 5788 5786 5785 5783 5781 5779 5777 5773
5868 5862 5856 5853 5842 5821 5839 5830 5820 5843 5850 5856 5859 5859 5857 5856 5854 5848 5844 5838 5834 5832 5828 5823 5816 5813 5811 5809 5807 5803 5801 5799 5797 5796 5794 5794 5795 5795 5794 5792 5790 5788 5787 5785 5783 5781 5779 5777 5775
5859 5838 5813 5806 5809 5817 5850 5839 5834 5859 5872 5870 5864 5862 5862 5860 5856 5850 5844 5839 5835 5832 5829 5825 5818 5813 5812 5810 5808 5806 5803 5801 5798 5797 5796 5795 5795 5794 5793 5793 5790 5788 5787 5785 5784 5781 5779 5778 5775
5850 5843 5814 5795 5795 5819 5842 5834 5849 5875 5879 5880 5877 5872 5867 5863 5858 5852 5848 5843 5838 5835 5831 5827 5820 5815 5813 5811 5808 5807 5805 5803 5801 5800 5799 5798 5797 5797 5796 5794 5791 5789 5787 5786 5783 5782 5780 5778 5776
5845 5845 5857 5834 5822 5813 5824 5840 5856 5876 5873 5874 5874 5870 5866 5863 5860 5855 5851 5848 5843 5838 5834 5830 5823 5818 5815 5813 5810 5808 5806 5804 5803 5802 5801 5799 5798 5798 5796 5794 5790 5788 5786 5784 5782 5780 5779 5777 5775
5859 5855 5847 5830 5802 5794 5808 5822 5830 5850 5859 5866 5867 5866 5866 5866 5863 5859 5854 5850 5846 5842 5838 5833 5827 5821 5818 5815 5812 5810 5807 5806 5805 5802 5800 5798 5798 5797 5795 5792 5790 5787 5786 5784 5781 5779 5778 5776 5774
5846 5845 5841 5835 5828 5802 5787 5805 5851 5855 5862 5863 5865 5868 5868 5867 5864 5860 5857 5854 5850 5845 5840 5833 5828 5823 5819 5816 5813 5811 5808 5807 5805 5801 5800 5798 5796 5795 5792 5790 5788 5786 5784 5782 5780 5778 5777 5774 5772
5855 5849 5843 5820 5815 5822 5809 5814 5867 5868 5867 5867 5865 5868 5869 5867 5866 5862 5858 5853 5849 5844 5840 5834 5830 5825 5821 5818 5814 5811 5809 5806 5803 5800 5799 5797 5794 5793 5791 5788 5786 5784 5782 5780 5778 5776 5775 5772 5769